{"data":{"norad_id":53855,"epoch":"2026-05-25T04:28:37.946784Z","epoch_age_seconds":66074,"freshness":"FRESH","line1":"1 53855U 22114AP  26145.18655031  .00001006  00000+0  81313-4 0  9999","line2":"2 53855  53.2140 310.4564 0001265  86.9552 273.1585 15.08840122204520","mean_motion":15.08840122,"eccentricity":0.0001265,"inclination_deg":53.214,"raan_deg":310.4564,"arg_perigee_deg":86.9552,"mean_anomaly_deg":273.1585,"bstar":8.1313e-5,"rev_number":20452,"period_min":95.437546960989,"perigee_km":538.8679042369,"apogee_km":540.61812788097,"semimajor_km":6917.8800160589,"source":"CELESTRAK","updated_at":"2026-05-25T13:38:17.577470Z"}}